Temp
89 87 88 89 89 88 88 87 87 88 87 87 87 88 87 88 88 87 87 88 87 87 88 87 87 87 91 94 94 94 92 91 88 94 96 92 87 88 87 88 81 86 80
89 87 88 88 88 89 88 89 89 87 87 87 87 87 87 88 88 87 87 90 88 87 88 87 87 92 86 87 90 86 86 88 87 83 88 91 86 87 84 80 83 84 81
86 88 87 88 88 87 89 88 87 87 87 88 87 86 86 86 87 88 87 88 89 89 88 88 88 88 85 85 88 88 88 89 87 87 87 91 90 87 79 78 77 77 77
83 87 85 85 84 85 86 87 88 87 86 87 87 87 87 86 86 88 88 86 87 89 89 89 89 88 87 85 87 86 84 86 85 87 88 86 83 84 82 76 71 71 69
85 85 84 84 86 85 81 84 86 85 85 86 86 87 87 88 92 88 87 87 86 86 88 89 89 87 79 80 89 85 85 82 88 88 88 89 85 81 81 81 75 70 68
84 83 85 84 83 84 83 83 82 84 84 84 85 85 86 90 78 73 80 88 87 85 85 87 88 81 79 72 71 71 78 82 82 85 87 87 84 82 83 80 75 67 65
84 84 83 83 82 82 82 76 75 80 84 83 83 84 84 86 72 68 71 86 86 86 85 86 88 92 82 88 73 69 69 69 71 82 81 83 82 85 83 79 76 74 79
83 83 83 83 82 82 81 81 81 82 82 82 83 83 83 85 70 64 68 82 84 85 86 87 85 85 86 86 86 86 86 87 82 83 83 85 85 87 84 83 80 78 75
83 83 83 83 82 82 81 81 82 82 82 82 83 81 81 82 67 64 68 83 85 84 85 85 85 85 77 67 82 83 84 86 76 70 67 67 67 67 73 82 77 72 67
84 84 84 83 83 82 82 82 82 82 82 84 83 83 77 81 69 62 67 84 83 86 85 85 71 78 69 63 78 78 81 84 84 85 82 75 70 76 66 78 77 72 69
86 85 84 84 83 83 82 82 81 81 81 81 80 79 80 79 80 62 60 80 85 84 85 83 87 64 62 60 60 80 81 77 78 80 81 80 85 82 75 73 74 72 69
84 83 83 83 85 85 81 81 81 80 75 74 74 76 80 78 67 64 61 60 67 77 78 82 80 58 58 56 60 63 60 62 80 77 75 72 71 69 69 68 64 62 62
84 83 83 83 83 82 80 80 81 81 81 81 83 83 82 81 80 61 61 58 59 71 79 66 59 56 55 60 57 58 59 68 69 69 69 67 68 66 64 62 60 58 57
82 82 83 82 80 81 84 85 83 83 83 83 78 79 80 78 79 74 75 70 61 66 66 72 67 61 56 62 64 67 67 67 69 68 67 61 61 60 59 60 58 58 56
82 82 82 83 80 82 81 82 81 80 75 77 77 78 77 78 77 62 61 69 70 63 62 76 75 73 71 70 69 68 67 67 65 60 58 58 57 57 57 59 56 56 55
81 82 84 85 84 84 83 82 53 53 52 49 47 56 75 57 49 47 45 45 46 47 63 70 73 73 69 69 67 65 64 62 60 58 57 57 58 57 56 56 55 56 54
80 82 84 76 83 82 80 80 79 63 49 46 46 46 45 47 45 43 42 43 44 48 65 72 68 67 66 66 64 62 60 60 60 58 58 59 59 56 55 54 54 54 54
80 59 81 81 81 81 80 78 76 74 74 75 50 52 46 44 43 42 41 43 60 57 68 68 65 63 63 63 63 61 60 60 58 57 56 56 57 55 54 53 53 54 55
82 84 82 83 82 76 79 80 80 76 72 73 73 58 53 45 44 43 44 64 68 67 66 62 61 61 60 60 60 60 59 58 58 57 57 57 57 56 54 56 58 57 62
83 69 68 80 82 81 79 79 78 73 71 71 73 67 65 60 62 61 62 62 62 62 62 60 60 60 59 59 58 58 58 58 59 58 58 57 57 57 58 59 63 65 70
86 85 72 78 81 81 78 76 78 74 71 69 68 64 49 61 61 60 60 60 60 60 60 60 59 59 59 59 59 59 60 59 59 58 58 58 60 62 64 69 73 73 73
82 82 82 81 81 72 70 70 71 74 72 69 68 62 48 62 61 60 60 62 66 69 66 64 67 62 61 62 65 65 64 60 59 59 60 62 66 72 74 74 75 74 71
80 79 76 75 74 67 67 70 69 69 70 72 69 67 64 63 64 67 69 70 70 71 71 72 67 65 65 65 65 67 66 70 73 74 75 75 76 76 76 75 74 73 73
81 77 76 75 68 65 64 65 68 58 67 70 70 70 72 72 72 73 74 74 74 73 69 73 74 74 71 74 77 79 80 80 79 78 78 77 77 72 76 74 73 73 74
82 77 67 74 73 64 62 65 66 63 68 67 69 73 74 74 77 78 78 78 77 77 77 78 79 77 77 77 79 78 57 52 71 63 79 78 77 74 76 77 76 75 75
81 78 73 75 71 65 61 62 62 61 68 67 70 73 74 77 79 78 78 78 78 79 78 79 79 78 77 78 78 52 39 46 64 47 77 78 76 77 77 76 74 76 72
MSLP
1012.54 1013.11 1013.43 1013.79 1014.26 1014.72 1014.86 1015.12 1015.27 1015.47 1015.69 1015.88 1015.95 1016.00 1016.01 1016.11 1016.24 1016.43 1016.51 1016.50 1016.63 1016.67 1016.70 1016.84 1016.92 1016.92 1016.60 1015.98 1016.08 1015.94 1016.09 1015.97 1015.45 1014.66 1015.34 1015.94 1016.83 1016.84 1017.28 1017.44 1018.38 1018.23 1019.24
1012.06 1012.64 1012.94 1013.45 1013.82 1013.96 1014.27 1014.48 1014.77 1015.03 1015.26 1015.44 1015.62 1015.74 1015.95 1015.97 1015.89 1016.13 1016.16 1015.88 1016.00 1016.18 1016.26 1016.51 1016.57 1016.27 1016.76 1016.67 1016.35 1016.51 1016.63 1016.52 1016.25 1015.67 1015.58 1015.75 1016.63 1016.84 1017.28 1018.01 1018.03 1018.22 1018.76
1011.90 1012.07 1012.57 1012.84 1013.23 1013.54 1013.72 1014.11 1014.31 1014.56 1014.82 1014.92 1015.15 1015.34 1015.45 1015.64 1015.76 1015.73 1015.78 1015.76 1015.62 1015.64 1015.81 1015.90 1015.92 1016.04 1016.27 1016.38 1016.15 1016.08 1016.21 1016.27 1016.15 1016.03 1015.62 1015.41 1016.04 1016.89 1017.75 1018.14 1018.46 1018.62 1019.04
1011.65 1011.65 1012.04 1012.55 1013.01 1013.39 1013.55 1013.69 1013.85 1014.12 1014.40 1014.47 1014.57 1014.74 1014.96 1015.21 1015.33 1015.41 1015.33 1015.51 1015.40 1015.28 1015.40 1015.43 1015.43 1015.57 1015.61 1015.93 1015.91 1015.86 1016.20 1016.00 1015.94 1015.88 1015.34 1015.51 1016.20 1016.39 1016.95 1017.68 1018.50 1018.96 1019.45
1011.12 1011.51 1011.85 1012.27 1012.58 1012.95 1013.54 1013.49 1013.59 1013.99 1013.91 1014.03 1014.09 1014.12 1014.23 1014.35 1014.37 1014.61 1014.92 1014.89 1014.98 1015.08 1015.06 1015.10 1015.04 1015.05 1015.27 1015.71 1015.56 1015.78 1015.61 1015.82 1015.34 1015.01 1014.83 1014.70 1015.24 1015.90 1015.95 1016.71 1017.70 1018.59 1019.35
1010.87 1011.27 1011.58 1012.02 1012.44 1012.63 1012.96 1013.11 1013.46 1013.50 1013.59 1013.60 1013.54 1013.66 1013.69 1013.54 1013.48 1014.03 1014.47 1014.31 1014.45 1014.59 1014.50 1014.50 1014.58 1014.77 1015.03 1015.42 1015.65 1015.70 1015.76 1015.56 1015.34 1014.94 1014.48 1014.07 1014.42 1015.23 1015.55 1016.01 1017.05 1018.17 1018.86
1010.75 1011.14 1011.51 1011.91 1012.25 1012.55 1012.98 1013.36 1013.23 1013.18 1013.11 1013.21 1013.25 1013.15 1013.21 1013.18 1013.32 1013.71 1014.08 1014.25 1013.91 1013.78 1013.86 1013.89 1013.91 1013.65 1014.13 1014.42 1014.77 1014.98 1015.07 1015.12 1015.04 1014.89 1014.70 1014.33 1014.25 1014.50 1014.90 1015.34 1016.01 1016.85 1016.70
1010.49 1010.84 1011.22 1011.62 1011.90 1012.07 1012.39 1012.55 1012.64 1012.76 1012.82 1012.85 1012.85 1012.84 1012.84 1012.78 1012.99 1013.47 1013.82 1013.94 1013.60 1013.28 1013.11 1013.10 1013.29 1013.42 1013.48 1013.64 1013.80 1013.87 1013.82 1013.77 1013.97 1014.23 1014.18 1013.91 1013.99 1014.02 1014.11 1014.23 1014.95 1015.74 1016.54
1010.13 1010.46 1010.84 1011.23 1011.53 1011.80 1012.00 1012.11 1012.27 1012.36 1012.37 1012.42 1012.40 1012.41 1012.44 1012.48 1012.80 1013.15 1013.50 1013.07 1012.63 1012.46 1012.47 1012.50 1012.61 1012.68 1012.66 1013.02 1013.31 1013.27 1013.09 1012.76 1012.62 1012.98 1013.43 1013.78 1013.72 1013.79 1013.69 1013.97 1014.50 1015.48 1016.30
1009.80 1010.18 1010.60 1010.99 1011.27 1011.49 1011.64 1011.81 1011.98 1012.13 1012.02 1011.89 1011.77 1011.92 1012.13 1012.24 1012.31 1012.64 1012.95 1012.47 1011.87 1011.61 1011.64 1011.71 1011.93 1011.98 1011.94 1012.33 1012.79 1012.72 1012.50 1012.15 1012.28 1012.35 1013.15 1013.52 1013.50 1013.18 1013.75 1013.53 1013.77 1014.59 1015.50
1009.67 1010.07 1010.47 1010.79 1011.07 1011.26 1011.53 1011.71 1011.85 1011.81 1011.73 1011.68 1011.68 1011.81 1011.71 1011.64 1011.51 1011.90 1012.21 1012.10 1011.27 1011.17 1010.98 1010.94 1010.92 1011.27 1011.64 1012.14 1012.45 1012.40 1011.90 1012.05 1012.08 1012.13 1012.21 1012.28 1012.20 1012.69 1013.07 1013.24 1013.35 1013.81 1014.34
1009.78 1010.10 1010.35 1010.61 1010.68 1010.83 1011.29 1011.45 1011.56 1011.58 1011.77 1011.86 1011.75 1011.62 1011.39 1011.52 1011.49 1011.73 1011.93 1011.98 1011.65 1011.39 1011.10 1011.00 1011.20 1011.85 1012.40 1012.53 1012.54 1012.42 1012.33 1012.37 1011.98 1011.74 1011.78 1011.89 1012.51 1013.26 1013.60 1013.80 1014.10 1014.43 1014.46
1009.62 1009.83 1010.07 1010.34 1010.61 1010.85 1011.06 1011.16 1011.05 1010.91 1010.97 1010.70 1010.50 1010.48 1010.40 1010.79 1011.20 1011.79 1012.04 1012.11 1012.07 1011.96 1011.47 1011.67 1011.90 1012.04 1012.11 1012.04 1011.94 1012.07 1012.09 1012.25 1011.91 1011.68 1011.71 1012.12 1012.47 1013.20 1013.85 1014.32 1014.65 1014.88 1015.19
1009.55 1009.77 1009.99 1010.22 1010.41 1010.60 1010.39 1010.36 1010.58 1010.58 1010.40 1010.39 1010.85 1010.86 1010.82 1011.07 1011.10 1011.71 1012.00 1012.31 1012.33 1012.26 1012.05 1011.83 1011.90 1012.07 1011.91 1011.75 1011.68 1011.56 1011.63 1011.49 1011.38 1011.27 1011.82 1012.52 1013.07 1013.78 1014.20 1014.57 1015.19 1014.65 1015.54
1009.50 1009.71 1009.91 1009.96 1010.40 1010.21 1010.42 1010.38 1010.59 1010.85 1011.33 1011.58 1011.64 1011.59 1011.32 1011.12 1011.54 1012.25 1012.62 1012.61 1012.39 1012.31 1012.31 1011.30 1011.08 1011.12 1011.00 1011.02 1011.08 1011.17 1011.14 1011.24 1011.15 1011.54 1012.04 1012.74 1013.51 1014.06 1014.61 1015.09 1015.39 1015.25 1015.36
1009.48 1009.59 1009.50 1009.53 1009.67 1009.72 1009.75 1010.02 1011.08 1011.46 1012.01 1012.43 1012.59 1012.54 1011.76 1012.04 1012.35 1012.79 1013.00 1012.90 1012.70 1012.56 1012.30 1011.38 1010.64 1010.59 1010.78 1010.77 1010.83 1010.98 1011.14 1011.11 1011.37 1011.82 1012.30 1012.93 1013.71 1014.37 1014.85 1015.74 1016.10 1016.41 1016.28
1009.47 1009.45 1009.47 1009.83 1009.41 1009.46 1009.95 1009.96 1010.03 1011.49 1011.89 1012.27 1012.50 1012.67 1012.86 1012.67 1012.70 1012.69 1012.78 1012.71 1012.48 1012.38 1011.82 1010.75 1010.70 1010.74 1010.86 1010.94 1011.12 1011.23 1011.43 1011.49 1011.79 1012.26 1012.72 1013.35 1013.91 1014.80 1015.07 1016.22 1016.72 1017.17 1017.64
1009.67 1010.02 1009.85 1009.78 1009.51 1009.39 1009.50 1009.81 1010.21 1010.49 1010.75 1011.02 1012.17 1012.40 1012.50 1012.64 1012.51 1012.42 1012.31 1012.31 1012.00 1011.70 1011.21 1010.86 1010.89 1011.04 1011.15 1011.22 1011.35 1011.52 1011.68 1011.95 1012.43 1012.94 1013.49 1013.99 1014.48 1014.97 1015.84 1016.65 1017.19 1017.75 1018.27
1009.34 1009.29 1009.49 1009.42 1009.38 1009.54 1009.56 1009.39 1009.70 1010.32 1010.80 1010.84 1010.96 1011.80 1012.16 1012.25 1012.05 1011.88 1011.86 1011.51 1010.99 1011.03 1011.17 1011.25 1011.26 1011.29 1011.44 1011.49 1011.62 1011.83 1012.15 1012.59 1013.07 1013.57 1014.07 1014.55 1015.06 1015.65 1016.37 1017.06 1017.27 1017.54 1017.56
1008.98 1009.48 1009.81 1009.53 1009.13 1009.13 1009.53 1009.43 1009.51 1010.12 1010.37 1010.55 1010.62 1011.38 1011.63 1011.74 1011.69 1011.56 1011.28 1011.23 1011.27 1011.26 1011.29 1011.39 1011.47 1011.60 1011.79 1011.96 1012.23 1012.48 1012.79 1013.18 1013.53 1014.03 1014.69 1015.19 1015.58 1015.99 1016.47 1016.80 1016.85 1016.94 1016.72
1008.57 1008.74 1009.30 1009.54 1009.02 1008.86 1009.39 1009.62 1009.45 1009.95 1010.05 1010.42 1010.91 1011.49 1012.01 1011.76 1011.52 1011.47 1011.38 1011.37 1011.36 1011.39 1011.50 1011.63 1011.88 1012.07 1012.24 1012.41 1012.65 1012.93 1013.28 1013.68 1014.15 1014.65 1015.17 1015.60 1015.95 1016.11 1016.17 1016.12 1015.64 1015.98 1016.39
1008.65 1008.59 1008.66 1008.70 1008.59 1009.55 1009.79 1009.92 1009.96 1009.78 1010.00 1010.32 1010.71 1011.32 1011.62 1011.29 1011.23 1011.21 1011.27 1011.26 1011.13 1011.21 1011.63 1011.71 1011.87 1012.42 1012.68 1012.89 1013.04 1013.23 1013.60 1014.16 1014.64 1015.02 1015.35 1015.61 1015.57 1014.95 1014.84 1015.24 1015.34 1015.82 1016.49
1008.60 1008.65 1008.82 1009.09 1009.39 1009.55 1009.79 1009.71 1009.78 1009.93 1009.91 1010.07 1010.40 1010.69 1010.94 1010.86 1010.78 1010.68 1010.59 1010.84 1010.96 1011.26 1011.45 1011.69 1012.22 1012.76 1013.16 1013.43 1013.61 1013.77 1013.76 1013.80 1013.93 1013.95 1013.90 1014.02 1014.11 1014.32 1014.59 1014.96 1015.33 1015.75 1016.28
1008.22 1008.56 1008.63 1008.74 1009.49 1009.84 1009.75 1009.76 1009.73 1009.99 1009.89 1009.98 1010.10 1010.06 1009.79 1009.76 1009.79 1009.96 1010.13 1010.53 1011.00 1011.60 1012.07 1011.87 1012.10 1012.42 1012.98 1012.83 1012.85 1012.66 1012.58 1012.84 1013.26 1013.52 1013.57 1013.79 1013.90 1014.61 1014.85 1015.04 1015.40 1015.43 1015.55
1007.81 1008.28 1008.99 1008.67 1008.72 1009.44 1009.64 1009.53 1009.81 1010.01 1009.79 1009.93 1009.77 1009.36 1009.15 1009.23 1009.11 1009.39 1009.87 1010.30 1010.71 1011.05 1011.14 1011.18 1011.43 1011.99 1012.19 1012.20 1012.19 1012.53 1013.58 1013.90 1013.51 1013.68 1013.66 1013.88 1014.15 1014.72 1014.73 1014.84 1015.10 1015.52 1015.68
1007.63 1007.93 1008.43 1008.31 1008.59 1009.12 1009.40 1009.58 1009.80 1009.95 1009.65 1009.64 1009.25 1009.07 1009.09 1008.86 1009.15 1009.56 1009.92 1010.20 1010.44 1010.63 1010.87 1011.00 1011.34 1011.68 1012.21 1012.37 1012.56 1013.57 1014.10 1014.41 1014.27 1014.49 1013.92 1014.11 1014.50 1014.49 1014.85 1014.98 1015.52 1015.61 1016.23
Wind_Speed
14 13 12 11 12 11 10 9 9 9 9 9 9 9 10 9 9 9 9 8 7 7 6 5 8 8 8 6 6 5 4 6 7 3 2 6 5 5 5 4 6 6 7
12 12 12 12 11 12 12 12 10 10 9 9 8 9 9 10 10 10 11 10 9 9 10 8 9 8 8 7 6 6 7 6 8 4 4 4 5 6 6 4 3 4 5
11 12 11 12 12 13 12 12 12 11 11 10 9 10 10 10 11 10 10 11 12 10 10 10 10 9 9 8 7 6 8 8 7 8 6 2 4 5 5 3 4 5 4
11 12 11 11 11 11 11 11 12 11 11 11 11 10 11 11 11 11 11 10 10 10 10 11 10 10 10 8 8 9 7 8 8 8 7 6 5 6 6 7 5 3 5
11 11 11 11 11 10 10 10 11 11 10 12 12 12 12 12 11 13 12 10 10 11 11 11 12 11 5 7 7 7 8 6 8 8 9 8 7 7 6 6 7 6 4
10 10 10 10 9 10 10 10 9 10 11 10 12 13 13 11 10 10 10 11 11 11 11 11 11 9 9 9 11 11 10 10 10 8 10 9 7 5 6 5 6 4 3
10 9 10 9 10 9 9 7 6 8 9 10 11 12 13 14 9 10 10 13 13 13 13 12 12 11 13 13 15 15 13 12 13 11 12 12 9 9 7 7 9 10 10
11 11 11 11 11 10 10 10 9 9 10 10 10 11 11 11 8 9 9 12 13 15 15 14 14 14 13 12 12 13 13 13 14 12 15 15 11 11 9 8 9 9 4
10 10 10 10 9 8 8 8 7 8 9 9 10 11 12 11 8 9 8 11 13 15 14 15 16 16 15 13 14 14 14 13 8 10 6 1 2 3 5 7 7 8 4
10 9 9 8 7 7 6 6 6 7 8 8 9 9 10 11 9 12 11 10 12 12 13 14 15 16 10 9 11 11 14 15 13 10 8 10 10 9 8 9 6 10 6
9 9 9 8 7 5 5 4 4 6 7 7 8 7 10 10 10 11 11 11 11 10 10 8 9 11 13 9 9 13 13 8 10 10 10 9 10 9 5 6 3 6 8
8 8 7 6 5 4 4 4 5 5 6 6 8 8 7 7 6 4 7 11 8 8 9 7 5 7 5 5 4 9 10 8 9 8 5 4 3 5 3 3 6 6 7
7 8 8 7 6 4 5 4 7 8 8 8 6 7 4 5 4 5 2 1 4 5 5 6 9 10 9 9 11 12 8 6 6 6 7 6 4 5 7 7 8 10 10
7 7 6 7 6 5 6 6 6 7 7 7 5 6 5 4 4 2 2 2 5 5 6 7 7 8 8 8 7 6 6 5 6 6 3 6 6 4 5 3 3 9 9
5 5 5 6 5 5 7 5 5 3 4 6 5 5 6 7 3 4 2 5 5 4 7 7 7 7 6 5 5 5 3 4 3 5 7 8 7 7 7 7 4 4 9
4 5 4 5 5 6 6 5 6 5 4 4 6 5 6 3 7 5 6 7 8 6 4 7 8 7 5 6 4 2 1 4 5 7 8 8 9 9 9 8 7 8 10
4 4 5 5 6 5 5 7 7 6 5 8 8 7 7 12 12 10 9 8 11 5 6 7 5 4 4 3 2 2 2 3 7 7 8 8 10 10 12 9 8 7 6
5 3 6 5 6 6 5 5 6 6 6 4 8 8 8 10 11 10 9 4 4 5 6 4 3 2 2 2 3 4 5 6 7 8 9 9 10 10 10 8 7 7 6
5 4 4 5 5 4 6 6 4 4 5 5 4 5 4 5 4 0 5 4 2 2 2 1 2 2 3 4 5 5 7 7 8 9 9 9 9 9 8 7 7 9 10
4 3 3 7 6 4 4 6 4 4 4 5 4 2 2 2 1 1 1 1 2 2 3 3 4 5 5 6 6 7 8 9 9 9 8 7 7 8 8 6 7 9 9
3 1 4 7 8 6 3 7 4 4 4 2 2 1 3 3 1 1 2 3 3 3 4 5 5 5 5 6 6 7 8 8 8 7 7 6 6 6 7 10 10 8 8
4 4 5 7 5 5 7 5 6 4 2 3 3 2 3 1 3 3 3 4 5 6 6 7 8 7 5 6 9 9 9 8 6 5 5 6 8 9 9 10 9 8 7
4 5 4 6 7 6 6 6 6 4 4 3 4 5 5 5 5 6 6 7 7 7 6 8 8 7 6 6 6 8 9 10 10 10 9 8 8 8 9 10 8 8 9
5 6 6 7 3 7 6 6 5 4 5 5 5 6 7 8 8 8 8 9 9 9 8 9 10 12 10 10 9 8 6 7 7 6 8 8 8 9 8 7 8 10 9
5 4 4 8 5 5 5 6 5 6 7 7 8 7 7 7 8 8 8 8 9 9 9 9 8 11 10 8 8 10 10 9 1 4 7 8 10 11 9 9 8 8 8
5 5 6 5 4 5 4 5 6 6 8 6 5 7 7 7 7 8 7 7 7 7 8 6 8 10 12 10 10 13 9 6 6 6 5 8 8 7 7 6 8 6 7
Wind_Direction
203 205 214 208 210 215 225 228 238 228 227 223 235 250 245 229 231 228 244 260 226 238 253 256 254 260 261 254 228 255 252 288 267 267 316 126 197 233 144 193 159 198 146
197 209 209 214 221 220 223 229 226 233 230 228 222 222 233 237 232 234 241 256 226 232 239 246 245 239 227 249 259 244 235 240 268 284 329 231 226 199 163 180 178 148 151
192 200 208 211 215 227 230 229 233 223 229 232 228 226 222 233 245 237 239 249 246 238 244 244 244 239 226 251 235 247 229 241 216 257 267 184 230 161 164 172 173 138 140
200 211 205 206 212 224 229 227 233 229 230 234 235 235 238 225 227 243 238 231 241 246 245 239 241 245 247 240 236 249 240 244 224 250 247 230 228 191 188 172 167 149 148
194 202 205 205 216 216 212 221 230 226 229 235 240 237 236 239 235 223 238 242 241 246 249 251 243 244 264 256 257 244 280 244 257 245 244 245 211 201 219 179 200 162 143
184 197 197 199 207 211 210 211 213 215 217 234 237 238 241 241 231 201 239 240 238 242 243 241 243 232 227 222 232 256 263 246 244 260 257 262 264 245 243 197 157 159 185
181 189 192 197 204 208 212 213 219 227 231 228 237 243 241 241 229 194 200 242 249 240 242 246 243 239 215 235 216 224 235 241 244 260 258 261 266 246 232 210 190 202 225
198 205 204 205 216 214 215 221 229 239 240 240 244 244 247 247 223 219 198 241 250 250 250 248 244 245 243 240 239 238 236 230 224 233 238 253 251 252 224 235 217 218 98
183 188 190 197 201 203 215 221 228 237 240 243 252 253 248 255 222 214 209 238 244 243 246 246 241 242 238 219 229 247 252 253 211 195 233 316 239 265 259 218 207 171 162
168 168 169 174 182 192 206 215 230 243 254 265 251 245 253 262 248 210 209 252 249 249 241 239 232 246 256 238 237 237 248 251 243 239 220 241 234 227 229 241 216 197 174
154 155 161 167 174 184 189 207 234 245 272 263 274 284 280 273 261 210 208 242 253 240 251 260 267 213 230 250 222 259 255 286 286 263 251 249 238 242 220 219 259 212 198
162 172 177 184 213 177 208 222 241 257 258 258 254 252 244 259 289 192 220 234 311 263 264 273 278 45 329 308 262 263 275 289 267 262 242 241 220 218 200 88 75 63 28
194 203 202 200 207 213 238 256 265 241 242 256 261 274 267 265 245 163 191 285 281 265 275 346 332 308 293 275 237 246 243 241 239 219 223 226 194 154 128 111 100 88 69
206 210 207 215 214 231 251 257 273 283 277 281 320 286 294 297 304 302 217 213 241 252 260 263 276 295 290 280 289 246 233 219 228 220 161 97 96 105 107 93 112 121 95
205 212 213 221 207 258 250 292 297 279 322 298 253 271 280 281 351 52 354 302 302 348 332 269 265 263 265 262 259 261 262 241 198 123 124 119 112 108 96 96 98 119 113
193 202 234 260 253 269 273 230 169 134 160 260 305 298 298 290 1 337 299 271 269 266 243 262 271 273 265 275 269 262 226 132 126 126 123 125 130 121 109 92 96 93 100
250 282 254 235 262 256 267 287 286 176 204 212 221 231 246 290 304 292 275 270 269 194 236 259 258 266 260 251 214 184 141 121 122 121 121 129 119 114 108 109 107 103 96
244 68 283 275 268 270 283 278 288 264 291 270 211 243 224 254 272 264 254 208 225 211 252 261 251 226 217 186 146 135 122 109 108 111 116 118 119 119 119 117 115 120 127
220 261 275 285 277 317 294 284 282 272 270 283 293 185 196 253 284 299 176 277 248 194 163 140 122 113 104 100 97 97 104 112 115 118 118 116 119 122 117 127 135 164 167
206 154 295 300 284 264 285 271 253 262 287 271 291 308 326 260 299 355 25 90 106 103 109 108 105 109 110 104 102 107 111 113 117 115 113 116 119 129 140 155 170 174 158
279 286 173 284 286 294 284 285 265 252 252 258 250 128 310 287 355 65 93 93 107 116 112 111 106 97 101 111 112 112 113 113 112 116 117 122 137 160 163 185 172 131 143
280 294 296 289 261 226 254 241 269 261 252 206 182 139 213 158 122 112 121 139 139 114 127 141 123 104 98 113 120 119 115 106 106 112 123 158 187 186 168 160 158 141 134
271 275 269 287 299 284 255 228 238 229 227 185 169 155 167 157 155 153 130 117 121 110 91 102 99 106 107 104 122 130 138 153 163 174 169 163 156 155 154 153 147 149 163
278 291 295 293 241 266 241 237 210 217 217 179 175 182 161 156 145 132 132 127 130 129 137 144 138 143 151 158 166 178 167 144 142 155 163 162 148 146 154 148 165 172 147
274 259 259 274 288 248 237 213 207 195 194 196 191 187 153 150 150 139 136 141 143 154 158 149 155 152 161 170 164 106 83 43 169 124 142 151 148 155 175 170 165 165 177
274 302 300 292 262 217 195 203 191 210 188 220 205 175 158 158 143 143 148 150 160 155 158 160 150 158 152 156 138 117 125 143 155 336 147 152 165 168 166 153 167 167 160